Location: Hackbridge
(51.3833°N, 0.1500°W)
Time: 13:16:09
(UTC+00:00)

STARLINK-79 - Pass Details

Date: 13 October 2019
Orbit: 548 x 551 km, 53.0° (Epoch: 17 November)

Event Time Altitude Azimuth Distance (km) Brightness Sun altitude
Rises 18:31:00 0° 223° (SW) 2,707 7.8 -13.0°
Reaches altitude 10° 18:33:19 10° 216° (SW) 1,817 6.7 -13.4°
Maximum altitude 18:37:11 40° 147° (SSE) 821 4.2 -14.0°
Enters shadow 18:39:02 25° 95° (E) 1,134 4.6 -14.3°
